GFSMA_850_thetae_000.txt.gz
Theta_e
304 304 303 304 305 306 307 307 309 312 317 320 322 324 327 338 339 337 334 335 335 337 333 324 332 331 323 318 324 327 327 327 328 327 325 325 321 319 318 315 313 311 313
302 301 301 301 302 302 301 302 303 308 313 318 320 322 328 325 328 338 337 335 335 337 334 327 328 335 330 320 314 327 328 327 327 328 325 320 319 319 317 313 311 311 312
300 300 300 301 302 300 300 300 301 303 306 311 319 320 322 325 325 327 332 337 335 336 334 332 328 332 332 328 317 323 328 327 327 329 326 319 318 318 317 314 312 311 312
299 299 299 300 303 301 300 300 300 302 302 303 311 318 322 324 322 320 325 337 338 335 335 334 329 329 333 331 327 321 325 328 324 328 326 322 318 318 317 315 314 314 316
299 298 299 300 301 300 300 300 300 303 304 305 304 306 318 322 324 327 323 324 335 338 336 334 333 325 332 333 330 324 325 324 326 324 323 320 318 317 317 316 316 316 317
298 299 300 301 302 302 302 301 302 305 306 304 307 310 308 315 320 322 329 326 323 328 335 334 334 330 327 330 330 328 326 321 322 320 319 319 318 317 318 318 317 317 317
299 300 302 302 302 303 303 302 301 301 303 306 306 307 308 312 312 318 321 329 327 324 332 334 332 332 328 324 329 330 328 324 316 319 320 320 319 318 318 318 318 318 317
300 301 301 302 302 302 302 301 302 302 301 303 305 305 306 307 308 309 314 320 328 326 328 332 333 331 331 326 328 330 326 327 315 318 320 321 319 319 320 319 319 318 318
301 301 301 301 301 301 300 301 301 302 302 302 303 303 306 306 306 310 316 321 323 321 325 329 333 331 329 330 324 330 328 326 321 318 321 321 320 320 321 321 320 319 319
300 301 301 301 301 301 300 300 300 301 301 302 302 302 304 304 304 308 308 310 319 324 321 323 329 331 330 329 326 328 328 326 326 319 321 321 321 321 322 322 321 320 319
300 300 300 300 301 300 300 300 300 300 300 300 301 302 303 303 302 305 308 309 309 311 324 326 326 329 330 329 327 327 327 326 326 321 321 321 322 322 323 323 322 321 320
299 299 299 300 300 300 300 300 300 300 300 301 301 301 301 302 301 304 307 307 308 307 312 325 326 328 329 328 327 325 327 325 325 326 321 321 322 323 324 324 322 321 319
299 299 299 299 299 300 299 299 300 300 299 300 300 301 302 302 301 302 306 306 307 307 308 323 325 324 328 328 327 325 326 326 321 327 322 321 323 324 325 324 323 321 319
299 299 299 300 299 298 299 299 299 299 299 300 301 302 302 301 300 303 304 304 307 308 307 309 324 324 327 327 326 324 324 325 321 325 322 321 322 325 326 324 323 321 319
299 300 299 299 299 299 299 299 299 299 300 301 301 300 299 300 302 302 303 305 306 308 307 309 323 324 326 325 326 323 324 325 323 322 322 321 322 325 325 324 323 321 318
299 299 299 299 299 299 299 299 299 299 300 300 298 299 300 300 301 302 304 306 309 309 308 314 322 324 325 325 325 323 324 325 323 322 321 322 323 325 325 323 323 321 318
299 299 299 299 299 299 299 299 299 299 299 299 299 300 301 301 302 305 307 309 310 308 309 314 313 320 324 324 325 324 323 324 322 319 319 324 323 325 324 322 322 321 318
299 299 299 299 298 299 298 298 298 299 299 299 299 300 301 302 305 306 308 309 308 309 313 312 313 315 324 323 323 323 322 322 319 314 315 325 323 324 323 320 321 322 318
299 299 298 299 298 299 299 299 299 299 299 299 300 300 303 303 305 307 309 310 310 311 314 313 314 316 322 322 323 322 321 319 318 311 311 324 323 323 323 318 317 321 318
299 298 298 298 299 299 299 299 299 299 299 300 301 301 302 305 305 309 311 311 311 315 313 314 315 320 322 320 322 321 318 317 314 310 311 316 319 319 321 317 312 321 318
298 298 298 299 299 299 299 299 300 300 300 300 301 300 303 305 306 309 314 314 313 315 315 314 315 320 321 319 320 319 317 317 314 310 310 312 315 315 316 315 309 320 318
298 298 299 298 299 299 299 299 300 300 300 300 301 301 303 305 308 312 315 315 315 315 315 314 314 319 321 321 320 320 318 321 322 316 310 312 314 313 315 316 310 318 318
298 298 298 298 298 298 299 300 301 301 300 300 301 301 303 305 308 312 315 317 317 316 316 312 315 323 321 321 320 321 321 321 318 317 313 313 314 314 314 314 311 317 318
298 298 298 298 299 299 299 300 300 301 300 300 300 302 303 305 308 311 312 317 318 317 317 314 315 318 323 322 322 321 321 322 320 316 314 315 315 315 315 314 312 317 318
298 297 298 298 299 299 299 300 300 300 300 301 301 301 302 305 308 309 310 313 317 318 319 316 316 319 322 322 321 323 323 323 322 320 318 311 316 317 317 315 313 316 318
297 297 298 299 299 299 299 300 300 300 301 301 302 300 303 306 309 309 311 315 318 318 320 316 315 318 323 323 322 323 323 322 321 321 320 314 316 319 316 316 313 316 318

GFSMA_850_thetae_003.txt.gz
Theta_e
304 304 303 303 303 302 302 302 302 303 304 307 316 319 320 326 329 334 338 340 339 337 337 335 333 332 333 329 326 329 327 317 317 325 327 327 328 324 320 315 313 312 313
303 302 302 301 301 301 300 301 301 301 301 302 304 313 319 321 325 326 326 329 338 337 337 336 335 332 334 330 327 328 327 324 315 315 320 327 327 322 318 314 313 312 313
300 300 299 300 300 300 299 299 299 299 299 300 300 301 309 317 321 322 323 324 327 336 337 335 335 332 334 333 330 324 327 327 315 314 321 324 323 322 319 315 314 313 314
299 299 299 299 300 300 299 299 299 299 299 299 299 299 300 302 312 321 323 324 323 322 335 335 335 333 331 336 330 326 326 328 323 312 315 324 321 320 320 316 316 316 315
299 298 299 300 300 300 301 300 300 300 301 300 302 302 299 299 301 311 322 323 326 326 326 335 335 334 333 333 332 330 326 327 325 315 315 321 319 318 320 317 316 317 317
299 298 299 300 301 301 301 301 300 300 300 300 302 304 305 301 299 301 307 318 323 327 328 327 330 335 333 332 333 332 329 326 326 322 317 319 319 318 318 317 317 317 318
298 299 300 301 301 301 301 301 300 301 301 300 299 299 299 300 301 299 304 310 313 319 325 330 325 326 334 332 330 334 333 330 327 326 324 318 319 318 317 318 317 317 319
299 299 300 300 301 300 301 300 300 300 300 300 300 301 302 301 302 302 301 303 313 316 323 327 331 324 328 333 332 331 331 331 329 327 326 321 319 319 317 318 318 318 319
299 300 300 300 300 301 300 301 300 300 300 300 300 301 301 301 302 302 300 301 302 305 312 320 330 328 328 331 330 330 327 329 330 327 329 327 321 319 318 319 319 319 320
299 300 300 299 299 300 301 301 301 300 301 300 300 300 300 302 302 301 301 301 302 305 307 311 322 328 327 329 331 330 329 326 330 327 329 329 328 321 319 321 320 320 321
299 299 298 298 299 300 300 300 300 300 300 300 300 300 300 301 300 301 302 301 301 302 305 306 309 322 327 326 326 330 329 325 329 327 326 332 331 322 321 322 322 321 321
299 298 297 298 299 299 299 300 300 299 300 300 300 299 299 300 301 302 302 302 300 301 304 305 306 309 322 327 326 329 330 326 328 328 326 330 332 326 322 323 323 322 321
298 298 297 298 299 300 299 299 299 299 299 299 299 299 300 301 302 302 301 300 300 302 304 304 304 307 314 327 327 325 329 328 326 328 325 328 329 328 324 324 324 323 321
298 298 298 299 299 299 299 299 299 299 299 299 299 300 300 301 299 300 300 301 302 303 304 303 304 306 310 321 328 326 328 327 326 328 325 327 328 329 326 325 324 323 320
299 298 299 299 299 299 299 299 299 299 299 299 299 300 300 299 299 301 300 300 303 303 304 304 304 306 309 315 327 326 327 326 326 327 325 327 327 328 326 325 324 323 320
298 299 299 299 299 299 299 299 299 299 299 299 299 299 300 300 299 301 300 300 301 302 303 305 305 307 309 320 327 326 327 326 325 327 326 325 328 328 326 325 324 323 320
298 299 299 299 299 299 299 299 299 299 299 299 299 299 299 300 300 301 302 302 303 304 305 306 308 307 310 314 324 326 327 326 324 326 326 323 328 326 326 325 324 323 320
298 298 298 298 298 298 298 299 299 299 299 299 299 299 300 300 301 300 301 303 306 306 307 310 310 308 313 314 323 324 327 325 323 325 325 323 327 323 325 324 323 323 320
298 298 298 298 298 298 298 299 299 299 299 299 300 300 300 300 301 301 301 304 308 309 310 309 309 309 312 314 324 323 325 325 324 325 325 322 326 322 324 323 323 323 320
297 298 298 298 298 298 299 299 299 299 300 300 300 301 301 301 300 302 305 307 310 311 310 309 310 309 312 315 322 325 326 325 326 325 324 323 325 321 322 322 321 322 321
298 298 298 298 298 298 299 299 299 299 300 300 301 301 300 301 301 303 306 308 311 312 311 310 312 313 312 315 320 325 324 325 325 324 322 322 325 323 316 321 318 318 321
298 298 297 297 298 298 298 299 300 300 301 301 301 300 300 301 301 303 306 310 313 314 313 313 313 312 314 316 321 322 323 324 322 323 321 320 323 323 315 319 318 314 320
297 297 297 297 297 298 299 300 301 301 301 301 300 300 301 302 301 305 307 309 312 315 313 314 314 314 314 320 321 321 322 323 321 321 319 317 319 320 315 319 318 310 318
297 297 297 297 297 298 299 300 300 300 300 300 300 301 302 302 302 306 307 309 312 314 316 315 314 315 314 318 320 322 322 322 319 318 316 316 318 317 314 315 315 309 317
297 297 297 297 298 299 298 299 300 299 300 300 300 300 302 301 304 306 307 309 312 315 316 317 316 315 315 320 320 320 321 320 318 318 315 312 316 315 312 312 312 308 316
297 297 296 297 298 298 298 297 298 299 299 299 300 301 300 298 305 307 308 310 314 316 318 317 317 316 316 319 320 321 322 320 318 317 315 313 314 314 312 311 311 310 313

GFSMA_850_thetae_006.txt.gz
Theta_e
305 304 304 304 303 303 303 303 303 303 303 303 304 311 316 317 324 330 332 334 335 337 339 337 336 336 336 335 332 330 328 327 327 328 327 326 325 324 321 320 317 316 313
304 304 303 303 302 302 302 301 301 302 301 302 302 302 303 312 318 323 328 330 332 330 330 338 337 335 336 335 333 330 328 329 327 327 327 329 327 323 322 319 316 314 313
303 303 302 301 301 301 300 300 300 300 300 300 301 301 301 301 303 314 319 322 324 325 326 327 332 338 335 335 335 332 329 329 327 326 327 326 327 325 320 317 314 312 313
302 300 299 300 300 300 300 299 299 299 299 299 299 300 300 300 301 301 302 311 320 322 324 324 325 335 336 335 334 334 331 328 328 326 326 328 327 327 320 318 314 312 314
300 299 299 300 300 300 300 299 299 299 298 298 298 297 297 298 299 299 299 300 305 318 322 324 324 328 336 335 333 334 334 327 327 328 325 327 328 327 323 318 316 315 316
300 299 299 299 299 300 300 300 300 299 298 298 297 297 297 298 298 297 298 298 299 303 312 321 325 327 329 335 334 333 334 331 328 328 325 325 328 329 324 319 317 316 316
299 299 299 299 300 300 300 300 299 299 298 298 298 297 297 299 298 301 298 297 298 299 302 310 317 322 331 327 334 334 334 333 331 329 327 322 328 330 324 319 317 316 317
299 299 299 299 300 300 300 300 300 300 299 299 299 299 299 298 299 297 298 299 297 297 299 301 309 318 326 333 328 333 333 333 333 331 329 325 328 329 328 319 317 317 317
299 299 299 300 300 299 299 300 300 300 299 300 300 299 300 300 299 298 300 299 299 298 298 301 303 309 320 328 331 325 330 332 334 333 331 327 324 329 329 320 318 318 318
299 299 299 299 298 298 298 299 299 299 300 300 299 299 300 299 299 300 299 300 301 301 301 301 301 302 311 318 330 327 328 331 332 333 332 330 325 328 329 326 318 318 319
299 299 299 297 297 298 299 299 299 299 298 298 299 299 299 299 299 300 300 301 300 301 301 300 300 302 304 312 318 329 329 331 330 330 329 331 326 328 329 328 321 319 319
299 298 298 297 297 298 298 299 298 298 298 299 299 298 299 299 299 300 301 301 300 299 300 301 302 303 304 305 313 324 329 328 330 329 328 330 327 328 329 330 326 321 321
298 298 298 297 298 298 298 299 299 299 299 299 299 299 298 299 299 300 301 300 299 300 301 301 303 302 304 303 309 315 326 330 330 329 327 328 326 328 328 330 330 326 321
299 298 298 298 298 299 299 299 298 298 299 299 299 299 299 299 299 299 299 300 299 301 301 301 302 303 303 304 308 311 325 328 326 329 327 327 326 329 329 329 330 329 322
299 298 298 298 298 298 299 298 298 298 298 298 299 298 299 299 299 299 300 300 300 301 301 301 302 302 303 304 308 309 315 327 328 328 327 327 326 328 329 329 330 329 322
298 298 298 298 298 298 298 298 298 298 298 298 299 299 299 299 299 299 300 300 300 300 301 301 302 303 303 305 311 310 319 326 327 328 327 327 326 327 328 328 329 327 322
298 297 298 298 297 297 297 298 298 298 298 299 299 299 299 299 300 300 300 300 300 300 300 302 303 304 305 306 311 310 323 327 327 327 328 327 326 326 327 328 329 324 321
297 297 297 297 297 297 298 298 298 299 299 299 299 299 299 300 300 301 301 301 300 301 301 304 305 306 307 308 310 314 320 328 326 327 327 328 326 325 326 328 327 323 321
297 297 297 297 297 298 298 297 298 298 299 299 299 299 300 300 301 300 301 302 301 303 306 306 306 307 309 309 310 313 320 327 326 327 327 327 326 324 326 327 325 322 320
297 297 297 297 297 297 296 297 298 298 299 299 300 300 301 300 300 301 303 301 302 306 309 308 309 308 309 310 309 314 322 325 328 327 327 327 326 324 326 326 324 321 319
297 297 298 297 297 296 296 297 299 300 300 300 300 301 300 300 301 302 302 302 302 306 311 310 310 310 309 310 310 315 324 325 327 326 327 326 325 324 325 323 323 320 319
297 298 297 297 296 295 296 298 300 300 301 300 300 300 300 300 300 302 302 302 304 307 311 312 313 310 310 312 312 314 323 326 327 326 326 325 325 324 325 323 322 319 319
297 297 297 296 296 296 297 299 300 300 301 300 299 299 300 300 300 301 302 304 306 308 311 314 313 310 313 313 314 315 321 325 325 325 325 324 325 323 324 322 322 316 319
297 297 296 296 296 296 298 298 299 300 298 297 297 297 299 299 300 299 302 304 307 310 311 314 313 312 313 314 314 320 322 325 325 325 323 322 323 323 323 321 319 313 315
297 296 296 296 296 296 298 297 298 298 297 297 298 298 299 299 298 300 303 305 307 311 315 316 313 313 313 315 316 321 323 323 324 323 322 320 320 322 322 322 316 312 308
296 297 297 296 296 296 297 297 297 297 298 297 298 298 298 297 298 302 303 305 307 310 313 317 315 314 315 315 318 320 322 322 322 320 320 320 320 322 320 320 314 311 307

GFSMA_850_thetae_009.txt.gz
Theta_e
307 306 305 304 304 303 303 303 303 303 303 302 302 302 305 312 315 317 325 331 332 334 335 335 337 338 337 337 337 335 331 330 328 328 329 328 328 329 328 324 321 313 314
306 305 304 303 302 303 303 302 302 302 302 302 302 302 301 301 302 310 315 324 330 331 331 330 334 336 337 338 337 336 334 331 329 327 328 328 328 328 328 325 321 313 313
306 304 302 302 302 302 302 301 301 301 301 301 301 301 301 301 301 301 301 306 316 323 326 326 327 332 336 337 338 337 335 332 330 329 327 327 328 327 328 327 322 313 313
305 303 302 301 301 301 300 300 300 300 300 300 300 300 300 300 300 300 300 300 300 301 311 319 322 324 331 336 338 337 336 334 330 330 328 326 327 327 328 327 318 314 314
304 302 301 300 300 300 299 299 299 299 299 298 298 298 298 299 299 299 300 300 300 300 299 301 312 320 324 326 336 337 336 335 332 331 329 328 325 327 328 327 321 314 314
302 301 300 299 299 299 299 299 298 298 298 297 297 297 297 298 298 299 298 298 298 299 299 299 299 306 319 324 330 335 337 335 334 331 329 328 325 326 327 327 325 317 316
301 300 299 299 299 299 299 299 299 299 298 298 299 299 298 298 299 297 297 297 298 298 297 297 297 298 303 318 324 330 333 337 334 334 330 329 327 324 326 327 327 324 317
300 299 299 299 299 299 299 299 299 299 299 298 300 299 299 298 299 296 297 296 297 298 298 297 296 297 299 302 314 327 330 333 336 334 332 331 328 324 324 327 327 326 321
300 299 299 299 299 298 298 298 298 299 298 298 299 298 299 299 298 298 296 296 297 298 300 300 299 298 299 300 303 318 325 330 332 337 334 332 329 328 323 327 327 327 326
299 299 299 299 298 297 298 298 298 298 299 298 297 298 298 298 298 299 297 297 298 298 299 300 300 300 300 300 301 305 320 329 330 333 336 335 331 328 325 327 327 327 324
299 299 298 298 298 297 297 298 298 298 298 298 298 298 298 298 298 299 298 297 298 299 299 299 300 300 301 302 301 301 306 318 327 330 333 336 332 329 325 326 327 326 324
299 299 298 298 297 297 297 298 298 298 298 298 298 298 298 298 298 298 299 299 298 298 298 299 300 300 302 302 302 302 305 312 325 330 331 335 333 331 325 326 326 327 325
299 298 298 298 297 297 298 298 299 298 298 298 298 298 299 299 298 298 298 298 299 299 299 299 300 301 301 302 301 303 303 309 315 328 331 332 333 331 324 327 326 327 326
299 298 298 298 297 298 298 298 298 298 298 298 298 298 298 298 298 298 299 299 299 299 300 300 300 301 301 302 302 303 304 305 312 328 330 331 331 330 326 328 327 328 328
298 298 298 298 297 298 298 298 298 297 297 297 297 298 298 298 299 299 299 299 299 299 300 300 301 300 302 302 303 302 305 305 312 321 329 331 330 329 326 327 328 327 327
298 298 298 297 297 297 297 297 297 297 297 296 298 298 299 299 299 299 299 300 300 300 300 300 301 301 302 303 303 303 305 305 310 322 329 331 330 329 326 328 327 327 327
298 298 297 297 297 297 296 297 297 297 296 298 298 298 299 299 299 299 299 300 300 300 301 301 301 303 303 303 304 305 306 306 312 322 328 331 329 328 326 329 327 328 328
298 298 297 297 297 296 297 297 297 296 296 297 298 299 299 299 299 300 300 300 300 300 302 301 301 304 304 305 305 306 306 306 312 323 327 328 329 327 326 328 327 328 329
298 297 297 297 296 297 297 296 296 295 296 298 299 299 300 300 300 300 300 300 302 303 303 302 302 304 306 306 307 308 308 309 315 324 326 329 329 327 326 327 327 327 328
298 297 297 297 297 297 297 296 295 295 298 299 300 300 300 300 300 300 301 302 302 303 302 303 303 307 306 307 308 308 310 314 318 326 326 329 329 327 325 326 326 327 325
298 297 297 297 297 297 296 295 295 298 300 300 300 300 300 299 300 301 301 302 302 302 303 304 307 308 309 308 309 310 312 315 323 326 327 328 328 327 325 326 326 325 322
298 297 297 297 297 295 295 295 297 300 300 300 300 300 299 297 297 297 299 300 301 302 304 305 309 311 310 309 309 310 314 316 325 325 328 328 328 326 325 326 325 324 321
298 297 297 297 296 295 295 296 299 300 299 299 298 296 297 298 298 299 298 299 302 304 306 307 311 312 312 310 311 310 312 319 325 325 326 328 328 326 325 325 325 324 321
297 297 297 296 295 295 295 296 298 298 297 297 296 297 297 298 298 298 299 301 303 305 306 309 312 313 313 311 313 314 314 317 327 328 327 326 326 325 324 324 325 324 320
297 297 297 295 296 296 296 296 297 297 297 296 297 297 297 297 297 299 301 302 305 305 307 310 312 313 312 312 314 314 318 322 326 326 326 325 324 325 324 324 325 323 318
297 297 296 296 296 296 296 296 297 296 297 297 297 297 297 298 298 300 301 304 303 305 306 310 314 313 313 314 314 317 321 324 324 324 324 323 323 324 323 324 323 321 316

GFSMA_850_thetae_015.txt.gz
Theta_e
313 312 309 307 305 305 304 303 303 303 303 303 303 303 302 302 302 305 309 312 316 322 326 330 333 333 334 335 338 337 339 338 335 334 330 325 328 332 328 329 327 323 324
313 312 310 307 305 304 304 303 303 302 302 302 302 302 302 302 301 301 301 302 304 309 316 324 329 330 332 332 335 338 339 338 337 336 333 330 328 330 328 327 326 326 322
313 312 310 307 304 303 303 303 303 302 302 302 301 302 301 301 301 300 301 301 301 301 301 302 305 313 325 330 331 334 335 338 338 337 336 331 329 327 328 327 326 326 322
312 312 310 307 304 303 302 302 302 301 301 301 301 300 300 301 300 300 300 300 301 301 301 301 302 302 302 303 315 328 333 335 337 337 337 335 331 329 328 326 327 327 322
312 312 310 306 303 302 302 302 301 301 301 301 300 300 300 300 300 300 300 300 300 301 301 301 301 301 301 302 302 303 315 330 330 337 337 337 335 330 329 327 326 328 324
312 311 309 305 303 302 301 301 301 301 300 300 300 300 300 300 300 299 300 299 299 300 300 300 301 301 301 301 301 301 301 305 326 332 337 337 336 333 330 328 327 328 326
311 310 308 304 302 301 301 300 300 300 299 299 299 300 300 299 299 300 300 299 299 299 298 299 300 301 302 301 301 301 302 302 302 321 331 335 335 335 332 329 326 327 327
310 309 307 303 301 300 300 300 299 299 298 298 298 298 299 299 299 299 299 299 299 298 298 297 297 298 301 303 302 302 302 302 301 302 311 329 334 335 334 331 328 326 327
309 308 306 303 301 300 300 299 298 298 298 298 298 298 299 300 299 298 298 298 298 298 298 298 298 298 299 302 303 303 303 302 302 302 301 310 327 331 333 333 329 326 324
309 307 305 302 300 300 299 298 298 298 297 297 297 297 297 297 299 300 299 298 298 298 298 298 298 297 297 300 303 304 303 303 303 302 302 301 305 329 328 332 331 327 326
308 306 304 302 300 299 299 298 297 297 297 297 297 297 297 297 297 298 299 299 299 298 299 298 298 298 297 298 299 303 304 303 303 303 303 302 301 317 326 331 332 328 326
307 306 303 301 300 299 299 298 297 297 297 297 297 297 297 298 298 299 299 299 299 299 299 299 299 298 298 297 298 301 303 303 302 303 303 303 301 300 313 328 332 329 326
307 306 304 301 300 299 298 297 297 297 297 297 297 297 297 297 297 296 297 298 299 299 299 299 299 299 298 298 298 300 302 304 304 303 303 303 300 300 306 326 331 331 326
308 306 303 301 299 298 298 297 297 297 297 297 297 296 296 296 295 296 298 299 299 299 299 300 300 300 300 300 299 301 302 304 304 303 303 302 302 306 306 321 330 331 328
307 304 302 300 299 298 298 297 297 297 297 297 296 296 296 295 295 296 297 298 298 299 300 300 300 300 300 300 301 302 302 304 304 304 303 303 303 307 308 316 328 332 327
306 304 302 300 299 298 298 297 297 297 296 296 296 296 296 295 295 296 298 298 299 299 299 300 300 300 300 301 301 302 302 303 304 304 304 304 303 306 310 313 327 331 328
306 304 301 299 299 298 298 297 297 296 296 296 296 296 294 295 296 298 299 300 300 300 300 300 300 300 301 301 302 301 303 304 304 305 305 304 304 307 309 312 325 329 327
305 304 301 299 298 298 297 297 296 296 296 296 295 294 294 297 298 300 300 300 299 299 299 299 300 300 300 300 302 303 304 304 305 306 304 303 305 306 310 322 331 328 328
305 302 300 299 298 297 297 297 296 296 296 295 294 294 296 299 299 300 300 299 299 299 299 299 299 299 300 301 303 303 304 304 306 305 304 304 305 310 313 324 327 329 325
305 302 300 299 298 297 297 296 296 296 295 295 294 296 298 299 299 299 299 299 299 299 299 300 300 300 300 303 304 304 305 306 306 305 304 305 306 311 317 324 327 328 326
304 302 300 299 298 297 297 297 297 296 295 295 295 297 298 298 298 299 298 299 299 299 299 300 300 300 302 303 305 304 307 306 306 306 305 306 309 312 320 327 325 328 327
304 301 300 299 298 297 297 297 296 295 295 296 297 297 296 296 296 296 298 299 299 299 300 299 300 302 304 304 305 306 307 307 307 307 307 306 312 314 324 327 329 328 326
303 301 300 299 298 297 297 297 296 295 295 295 296 296 296 296 297 297 297 298 298 298 300 301 302 303 304 306 305 306 309 309 308 308 307 311 312 323 328 327 328 327 327
303 301 300 299 298 297 297 296 295 295 295 295 296 296 296 296 296 297 298 298 299 299 300 301 303 304 304 305 307 308 310 310 308 311 310 316 322 327 326 328 328 328 328
302 301 300 298 298 297 297 295 295 295 295 296 296 296 296 296 297 299 299 299 299 299 300 304 304 304 307 308 312 311 311 309 309 313 315 321 326 326 327 329 328 327 327
302 300 299 298 297 297 296 295 295 295 295 296 296 296 297 297 298 299 299 299 300 299 304 303 305 307 310 313 312 311 310 309 313 315 319 323 326 326 320 327 327 326 324

GFSMA_850_thetae_021.txt.gz
Theta_e
313 312 312 313 314 311 308 306 305 305 305 305 305 304 305 304 304 305 304 304 306 309 313 318 322 325 332 332 333 334 334 337 337 339 338 336 335 333 325 325 328 328 328
313 312 312 312 313 313 309 306 305 305 305 306 305 304 304 304 303 303 303 303 303 303 303 306 310 314 319 327 330 330 331 334 336 336 337 338 337 335 332 329 331 330 327
312 312 312 312 312 313 310 307 305 304 305 304 306 305 305 303 303 303 302 302 302 302 302 302 302 302 303 306 313 319 324 328 333 334 335 336 337 337 335 332 330 330 327
312 312 312 312 312 312 311 307 305 304 304 305 307 307 306 305 304 303 302 301 301 301 301 302 302 302 302 302 303 303 303 304 315 330 332 332 335 337 336 336 332 329 328
311 311 311 311 312 312 311 308 305 304 306 306 305 305 306 305 305 305 304 302 302 301 301 301 302 302 302 302 303 303 303 303 303 303 314 330 332 333 336 336 336 332 330
314 313 311 311 311 311 311 309 305 305 304 304 303 305 306 305 303 304 305 305 305 303 301 301 301 301 301 302 301 302 303 303 303 303 303 303 318 330 334 336 336 336 333
314 316 311 310 311 311 311 308 305 305 304 304 303 307 307 306 305 305 306 305 304 304 303 302 302 302 301 302 300 301 301 302 303 303 303 302 302 308 330 334 335 336 335
316 316 312 310 310 311 310 309 306 304 305 304 305 305 308 308 306 305 305 304 304 304 303 304 303 303 302 302 302 301 300 300 301 303 304 303 303 302 304 330 334 334 335
316 315 312 310 310 310 310 309 306 303 305 306 302 304 307 309 307 305 305 305 304 304 304 304 303 303 303 303 303 303 303 299 299 300 302 305 304 303 303 303 321 333 334
316 315 311 310 309 310 309 309 306 304 301 305 304 302 302 303 305 305 305 305 304 303 303 303 303 303 303 303 303 303 301 299 299 299 300 302 304 305 304 303 303 314 331
316 315 311 310 309 309 309 308 306 304 302 302 305 305 304 304 304 304 304 305 304 303 303 302 302 303 303 303 303 303 303 302 300 298 298 299 302 304 305 305 304 304 311
316 314 312 309 309 309 309 308 306 303 303 302 304 304 304 304 304 304 303 303 302 302 302 302 302 303 303 303 303 303 303 304 304 302 299 298 299 307 307 305 305 306 306
315 315 312 310 309 309 309 307 305 303 302 302 303 304 303 303 303 303 302 302 302 301 302 302 302 302 303 303 303 303 303 303 303 302 304 301 304 307 309 309 306 305 311
316 316 313 310 309 309 308 307 304 302 302 302 303 303 303 303 302 302 302 301 301 301 301 302 302 302 303 303 303 303 302 303 303 304 304 305 305 306 310 308 307 305 310
313 315 313 310 309 308 308 306 303 302 301 303 303 302 303 302 302 302 301 301 301 301 301 301 302 303 303 303 303 303 303 303 303 304 304 304 306 307 307 308 309 306 307
311 313 312 310 308 307 307 305 303 302 302 303 303 303 303 302 301 301 301 301 301 301 302 302 303 303 303 303 303 302 302 302 303 303 304 304 306 307 307 308 309 307 305
311 310 312 310 309 307 306 305 303 302 302 303 303 302 302 301 301 300 300 300 301 302 303 303 303 303 302 302 302 302 303 303 303 303 304 304 305 306 306 307 307 307 305
311 309 310 310 309 307 306 304 303 303 302 302 302 301 301 301 300 300 300 301 302 303 303 302 302 302 302 301 302 302 301 303 304 303 304 305 306 306 306 306 306 307 306
310 308 308 309 308 307 305 304 303 302 302 302 302 301 301 301 300 300 301 302 302 302 302 302 302 302 302 302 302 301 301 302 303 303 305 305 306 307 307 306 306 307 307
310 308 307 308 308 307 305 303 302 302 302 301 301 301 300 300 300 301 302 302 302 302 301 301 301 300 301 301 302 302 304 303 303 304 305 305 307 307 306 306 307 306 307
309 308 307 307 307 306 304 303 302 301 301 301 301 300 299 300 301 302 302 301 301 301 301 300 301 300 301 301 302 303 303 303 304 304 304 305 307 307 306 307 307 307 306
308 307 306 306 306 304 304 302 301 300 300 300 301 300 300 301 302 302 301 301 301 301 300 300 301 300 301 302 302 302 303 303 304 304 305 305 308 307 307 306 306 306 306
308 307 306 305 304 304 303 302 300 299 300 301 300 301 301 301 301 300 300 301 300 301 301 302 301 302 302 302 302 303 304 305 305 305 305 305 307 308 307 307 307 304 303
307 306 305 304 304 303 302 301 299 298 300 301 301 301 301 301 301 300 300 300 301 301 301 301 302 302 302 302 304 304 304 304 306 307 307 307 309 309 308 307 306 307 313
307 306 305 304 303 302 302 301 299 297 299 301 301 301 301 301 301 300 300 300 301 301 300 301 301 301 303 303 304 304 305 308 310 309 309 309 310 309 309 308 312 315 314
306 305 304 303 302 302 302 300 299 299 301 301 301 300 300 300 299 298 299 301 301 300 300 298 300 302 303 305 307 308 311 311 312 310 309 310 311 309 312 317 320 316 317

GFSMA_850_thetae_024.txt.gz
Theta_e
313 313 312 311 311 313 314 312 309 307 307 306 306 306 306 306 306 306 305 305 304 305 307 310 314 318 323 328 329 331 334 334 336 337 337 337 337 336 334 330 327 328 329
313 313 312 312 311 312 313 313 310 307 306 306 307 306 305 305 305 304 304 304 304 304 304 304 304 306 310 314 318 324 326 330 332 334 335 337 337 337 336 335 332 330 330
313 313 313 312 311 311 312 313 311 307 306 305 306 306 306 305 304 304 304 304 303 303 303 303 303 302 302 302 303 306 310 316 323 329 333 332 334 334 336 336 335 333 330
312 312 312 312 312 311 312 313 312 308 306 306 306 307 306 306 305 304 304 303 302 302 302 302 302 302 302 302 302 303 303 303 303 306 322 331 331 330 334 336 336 335 333
311 312 312 311 311 311 311 312 312 310 307 306 305 305 305 306 305 305 305 304 303 303 302 301 302 301 302 302 302 303 303 303 303 303 303 303 319 330 331 331 334 336 335
311 311 311 311 311 311 311 311 312 311 307 306 305 305 305 305 305 304 305 305 305 304 304 303 302 301 302 302 302 302 302 302 302 303 303 303 303 303 319 332 328 333 334
313 311 311 311 312 311 311 311 311 311 309 305 304 304 306 306 306 305 304 304 304 304 304 303 302 302 302 302 301 301 301 301 301 301 302 303 303 303 302 309 326 329 333
314 312 311 312 313 312 310 311 311 311 308 306 305 306 305 307 307 306 305 305 304 304 304 303 304 304 303 302 302 302 301 301 301 300 300 301 303 304 303 302 305 327 328
315 314 313 313 314 312 310 310 311 311 308 306 304 304 307 306 308 307 306 305 304 304 303 303 303 303 303 303 303 302 302 302 301 300 300 300 300 302 304 304 303 304 322
315 315 314 315 314 312 310 310 310 310 307 305 305 303 303 306 306 305 305 305 305 304 304 303 303 303 302 302 303 303 302 302 303 301 300 299 299 299 301 304 304 303 302
315 315 315 315 314 312 311 310 310 310 309 304 305 304 303 302 302 302 303 304 304 304 303 303 303 301 302 302 303 302 302 303 303 302 301 303 303 306 306 308 309 306 304
316 315 315 315 314 313 311 310 310 310 309 306 303 304 304 304 303 303 304 304 303 302 301 301 301 302 302 302 302 303 303 303 303 302 301 300 303 305 307 308 309 311 311
316 314 315 314 314 312 311 309 309 309 308 306 303 304 303 303 302 303 303 302 301 300 300 300 300 301 302 302 303 303 303 303 303 302 304 305 306 306 306 307 310 312 310
316 315 315 315 314 311 310 309 309 309 307 305 303 302 302 302 302 301 300 300 300 300 300 300 299 301 302 302 302 303 303 303 303 303 304 304 305 305 305 306 307 309 310
317 315 314 314 313 311 309 309 308 308 307 305 303 302 301 301 301 301 300 300 301 301 300 299 300 300 301 302 303 303 303 302 303 303 302 304 304 304 305 307 307 308 309
319 315 313 313 312 310 309 308 308 308 307 304 302 301 301 300 300 300 300 300 300 300 300 299 300 301 302 303 302 302 302 302 302 302 303 303 303 304 305 306 307 307 308
317 315 312 312 312 310 309 308 308 308 306 303 302 301 301 301 301 301 300 299 299 300 300 301 302 303 303 302 302 302 301 301 302 301 302 303 303 303 304 305 306 306 307
314 315 312 311 312 310 308 308 308 308 306 304 302 301 301 301 300 299 299 299 299 301 302 303 303 302 302 301 302 301 300 301 302 301 303 303 303 304 305 305 306 306 306
314 315 313 311 310 309 308 307 308 308 305 303 302 301 301 300 300 300 300 300 301 302 302 302 302 302 301 301 300 301 301 301 302 303 304 304 304 305 305 305 306 306 306
313 314 313 310 310 309 308 307 307 306 305 303 302 301 301 301 301 300 299 300 301 302 302 301 301 300 300 300 300 300 301 302 302 302 303 304 305 305 306 306 307 306 307
310 313 312 310 309 308 307 306 306 306 304 302 302 301 301 300 300 299 300 300 300 300 300 300 300 300 300 300 301 301 302 302 302 303 304 305 304 305 305 306 307 307 307
309 311 311 309 309 307 306 306 305 305 303 302 301 301 300 300 300 300 301 302 302 302 301 301 300 301 301 301 302 302 303 302 303 304 304 304 304 305 306 307 308 307 307
308 309 310 308 308 306 305 305 304 304 303 301 301 300 300 300 301 301 301 300 301 301 301 302 302 301 301 302 302 301 303 305 305 304 305 304 304 305 305 307 307 307 307
307 308 309 308 307 306 305 304 303 303 302 300 299 300 300 301 301 301 300 299 299 298 300 302 301 301 301 301 301 303 303 303 304 306 307 305 306 305 307 308 307 306 306
306 307 309 307 306 305 304 304 303 302 300 299 300 301 301 301 300 300 300 299 298 299 301 299 297 297 300 302 303 303 304 303 304 308 311 309 308 307 308 308 308 307 306
306 307 308 307 305 304 304 303 302 301 299 299 300 300 301 300 300 300 299 297 298 299 298 296 298 299 302 305 306 306 307 305 305 308 309 309 309 309 310 309 308 306 305

GFSMA_850_thetae_027.txt.gz
Theta_e
313 313 313 312 311 311 312 314 313 310 308 308 307 307 307 307 307 307 306 306 305 305 306 308 311 315 320 323 320 325 333 334 334 335 336 336 336 336 336 335 332 329 329
313 313 313 313 312 311 311 312 314 313 309 308 307 306 306 306 306 306 305 305 305 304 304 304 303 304 306 309 312 315 319 325 331 332 333 335 335 335 334 334 335 334 331
313 313 313 313 312 311 311 311 312 313 311 308 307 306 306 306 305 305 305 305 304 304 303 303 303 302 302 302 303 303 304 309 315 321 327 332 328 331 333 334 335 334 334
313 313 313 312 312 312 311 311 311 312 312 308 307 307 307 307 306 306 305 305 304 303 302 302 302 302 302 302 302 303 303 303 303 303 305 316 328 331 328 330 331 335 334
315 313 312 312 312 312 311 311 311 311 312 310 307 306 306 306 306 306 305 305 304 304 304 303 302 301 301 301 302 302 302 302 303 303 303 303 303 316 329 329 326 330 334
317 314 312 312 312 311 311 311 311 311 311 310 307 306 305 305 305 306 305 305 305 305 304 304 303 302 302 301 301 301 301 301 302 302 302 303 303 303 303 313 327 329 330
322 317 314 312 312 311 311 311 310 310 311 310 308 306 304 304 306 306 306 305 305 304 304 304 303 302 303 302 302 301 301 301 301 301 301 301 302 303 303 303 302 311 330
324 320 316 312 311 311 310 311 311 310 310 310 308 305 306 307 306 307 306 305 305 304 304 304 303 303 303 302 302 302 302 301 301 301 300 300 300 301 302 303 303 302 311
324 323 320 315 312 311 310 311 311 310 310 310 309 307 305 307 307 307 307 306 305 305 304 303 303 303 303 303 303 302 302 302 301 301 300 300 300 300 300 301 303 303 302
323 322 321 318 315 312 311 312 311 310 310 310 309 307 304 306 307 307 306 305 305 305 304 304 303 303 303 302 302 302 302 302 302 302 302 303 301 301 300 300 300 302 304
322 321 321 319 316 315 313 312 311 310 310 310 309 308 305 303 304 305 304 305 305 305 304 304 303 302 302 301 302 302 302 303 303 303 303 302 304 306 307 307 309 310 310
321 320 319 319 317 316 315 313 311 310 309 309 309 307 306 304 303 302 302 302 304 304 304 302 301 300 300 301 301 302 302 303 303 303 303 305 306 307 308 308 309 309 312
323 321 319 318 318 318 317 314 312 310 309 309 309 308 306 304 303 303 303 303 303 302 300 300 299 299 299 301 302 303 302 303 303 304 305 305 306 307 306 307 308 308 309
321 322 321 319 319 319 317 315 313 310 309 309 308 307 305 304 303 302 302 302 301 300 300 299 299 298 299 301 301 301 302 302 302 302 304 304 304 304 305 306 307 307 307
313 320 323 321 319 318 317 315 313 311 309 308 308 307 305 304 302 302 301 301 300 300 300 299 298 298 299 300 301 301 301 301 302 302 302 303 303 304 304 305 305 306 308
310 317 320 320 318 317 317 315 312 310 308 308 308 307 305 303 302 301 301 300 300 300 300 299 298 299 300 301 302 301 300 301 301 301 300 301 302 303 304 305 306 306 306
309 313 318 319 317 316 316 315 311 310 308 308 307 306 305 303 301 301 300 300 300 300 300 298 299 300 301 302 301 301 300 300 299 299 300 300 300 300 304 304 303 304 305
308 309 312 317 316 315 315 314 311 309 308 307 307 306 304 302 301 301 300 300 299 299 299 300 300 301 301 301 301 300 300 299 300 299 300 301 302 303 303 303 304 304 305
308 309 310 312 315 314 313 313 312 309 308 307 307 305 304 302 301 301 300 299 299 299 300 301 302 301 301 300 299 298 299 300 301 301 302 303 303 304 304 304 305 304 305
308 309 309 309 312 314 312 312 311 309 308 307 306 304 303 302 301 300 299 300 299 300 300 301 301 301 299 298 299 300 300 300 301 301 302 302 302 303 304 304 305 306 305
306 308 309 308 311 312 312 311 310 309 307 307 306 303 302 302 301 300 300 300 299 299 300 301 300 300 299 300 301 300 300 301 302 302 302 303 304 304 305 305 305 305 307
305 307 308 307 309 310 312 311 311 309 307 306 304 303 302 302 300 300 300 299 299 299 301 302 301 301 301 301 301 301 301 302 300 303 304 304 304 305 305 305 305 305 305
305 305 306 308 308 310 311 310 310 308 307 305 304 302 302 301 300 300 300 302 303 302 301 301 300 300 301 300 301 300 300 301 303 304 304 304 304 304 305 305 305 305 307
303 303 304 307 308 309 310 309 308 307 306 304 303 302 301 300 300 300 301 301 300 299 299 298 300 301 299 297 299 302 303 303 303 304 306 305 306 306 306 306 305 306 307
303 302 303 306 307 308 309 308 307 306 305 303 302 301 300 300 300 301 301 300 298 298 297 298 298 296 297 299 302 303 304 303 303 306 306 304 306 307 306 305 305 307 307
301 301 302 306 306 307 308 307 306 305 303 302 301 301 300 300 301 301 299 299 298 297 298 297 296 297 298 303 305 306 305 304 304 304 306 306 309 308 307 306 307 307 307

GFSMA_850_thetae_030.txt.gz
Theta_e
312 313 313 312 310 311 311 313 313 312 309 307 307 308 308 309 309 309 309 307 306 305 306 309 312 317 320 321 319 326 333 334 335 334 334 335 334 334 333 334 334 332 330
316 313 313 312 311 311 311 311 312 312 310 308 307 307 307 307 307 306 306 306 305 305 304 303 303 305 308 311 313 313 317 326 332 333 333 333 334 334 332 333 333 334 333
324 322 313 313 312 311 311 311 311 312 312 309 307 307 306 306 306 305 305 305 305 304 303 303 302 302 302 302 302 303 305 310 318 322 327 330 329 330 331 332 333 334 333
328 325 321 314 312 312 311 311 311 311 311 311 309 307 306 307 307 306 306 305 305 304 303 302 301 301 302 302 302 302 302 302 302 303 305 315 325 329 325 328 329 331 332
329 328 324 318 313 312 312 311 311 310 310 311 310 308 306 307 307 306 306 306 305 305 304 304 303 302 301 302 302 302 302 302 302 303 303 303 303 311 326 330 327 329 330
330 328 327 324 317 313 312 311 311 310 310 310 309 308 307 306 306 305 306 306 305 305 305 304 304 303 302 302 302 302 302 302 302 302 302 303 303 303 303 308 324 328 326
330 328 325 325 320 316 313 312 311 310 310 309 309 309 307 306 305 305 305 306 305 305 305 304 304 303 302 303 302 302 301 301 301 302 301 301 301 302 303 303 303 304 317
326 325 327 325 322 319 316 312 311 311 310 309 309 308 307 307 305 305 306 306 305 305 305 304 304 303 303 303 302 302 302 302 301 301 300 301 301 301 301 302 303 303 303
319 323 324 323 323 320 318 315 312 311 310 309 309 308 307 307 307 307 306 307 306 305 305 304 304 303 303 303 303 302 301 302 301 301 301 301 301 300 300 300 301 301 303
320 318 319 322 321 321 319 318 314 311 310 310 308 308 307 307 307 307 307 307 306 305 305 304 304 304 303 303 302 302 302 302 301 302 302 302 306 303 302 301 301 301 301
314 320 319 318 319 320 321 319 316 313 311 311 309 309 308 307 305 306 306 307 306 305 305 304 304 304 303 302 301 302 301 301 302 303 303 306 306 306 308 309 309 308 309
312 313 317 319 317 318 319 320 319 315 312 311 311 309 308 308 308 305 304 304 304 304 305 304 304 303 301 300 301 301 301 302 302 303 305 306 307 307 308 308 309 310 310
306 310 311 315 318 317 318 318 318 317 315 312 312 310 309 308 307 306 304 303 303 304 304 304 303 300 299 299 300 301 302 302 302 302 304 305 306 307 307 307 307 308 309
307 307 310 310 314 317 316 318 320 319 316 314 312 310 309 308 306 306 304 303 303 303 303 301 300 299 299 299 299 301 302 301 301 302 303 304 305 305 305 306 306 306 308
308 307 310 309 311 315 317 317 318 319 318 315 313 311 309 308 306 305 304 303 302 302 301 300 299 299 298 298 299 300 301 300 300 300 301 302 303 304 304 305 305 305 306
306 305 308 309 310 314 315 316 317 318 317 316 313 311 309 308 306 305 304 303 302 301 300 299 299 299 298 299 300 301 301 300 300 300 300 300 299 302 304 304 304 305 305
305 306 306 308 309 311 313 314 316 316 317 316 313 311 309 308 306 304 303 302 302 301 300 299 299 298 299 299 300 301 300 299 299 298 298 298 299 300 301 304 304 305 305
305 305 307 306 309 310 311 312 313 315 316 315 313 311 309 307 306 304 303 302 301 300 300 299 298 298 299 299 300 300 299 297 297 297 298 298 299 300 301 302 302 302 302
304 306 307 305 306 309 310 310 310 313 315 315 314 311 309 307 306 304 303 302 301 301 300 299 298 299 299 299 300 299 298 298 299 299 299 300 301 302 303 303 303 304 305
304 306 306 305 305 306 309 310 309 311 313 314 314 310 309 307 306 304 302 302 301 300 300 299 299 299 299 300 299 299 299 299 298 297 298 300 301 303 303 303 304 305 304
306 306 304 304 304 305 308 309 310 312 311 313 313 310 308 307 306 304 302 302 301 300 300 299 299 300 300 300 298 299 300 298 296 297 301 304 305 306 305 304 304 304 304
303 302 302 302 303 304 305 309 310 309 310 312 312 309 308 306 305 303 302 301 300 300 299 300 300 301 300 298 300 300 298 296 297 301 304 304 305 305 305 305 305 305 305
301 300 301 302 303 303 305 308 309 308 309 311 311 308 307 305 303 302 302 301 301 300 302 301 300 300 299 299 300 297 296 298 302 304 303 303 304 305 305 305 305 305 305
300 299 300 302 302 303 305 308 309 308 309 311 310 308 306 305 303 302 301 302 303 303 301 300 300 298 298 298 296 297 299 302 304 305 305 304 307 307 306 305 306 306 306
299 299 300 301 301 301 305 308 309 308 306 308 308 306 305 303 302 301 300 300 300 300 300 299 298 298 297 296 297 299 303 303 304 304 306 304 304 305 305 305 307 306 306
298 299 300 301 301 301 305 307 308 308 306 306 306 305 303 302 301 300 300 300 300 299 299 298 298 296 296 296 299 304 306 303 303 302 306 304 303 303 305 306 306 306 305

GFSMA_850_thetae_033.txt.gz
Theta_e
330 321 313 313 312 310 311 311 312 311 309 308 307 308 308 310 311 312 312 310 308 307 306 309 313 317 319 321 321 329 333 334 335 334 335 335 335 333 332 332 332 332 332
327 326 318 313 313 312 310 310 311 311 310 308 307 307 307 307 307 307 308 307 306 305 305 304 305 307 310 313 315 317 321 331 333 333 333 332 333 332 332 331 332 332 332
330 326 324 323 316 312 312 311 310 310 310 309 308 307 307 306 306 306 306 305 305 305 304 303 303 302 302 302 303 305 309 312 318 327 332 331 330 329 332 333 331 332 334
332 329 328 327 322 316 312 312 311 310 310 310 309 308 307 306 306 306 306 306 305 305 304 303 302 302 302 302 302 302 302 302 303 307 314 320 325 330 328 328 327 331 332
331 330 330 329 323 319 316 312 312 311 310 310 309 308 307 307 306 307 307 306 306 305 305 304 304 302 302 301 301 302 302 302 302 302 302 302 303 310 324 328 324 326 325
332 328 327 329 323 320 319 316 313 312 311 310 309 309 308 307 306 306 306 306 306 306 305 305 304 304 303 302 302 301 302 301 301 302 302 302 302 302 302 307 320 324 326
330 328 325 322 326 321 320 319 315 312 311 310 309 309 308 308 308 307 306 305 305 306 305 305 304 304 303 302 302 302 302 303 304 302 301 301 301 302 302 303 303 303 311
323 321 319 317 317 319 321 319 317 316 312 311 309 309 308 308 309 309 307 305 305 306 306 305 304 304 303 303 303 303 302 302 302 301 301 301 301 301 301 301 302 303 303
316 320 320 318 314 314 322 321 319 318 316 312 310 309 308 308 308 308 308 306 305 306 306 305 305 304 303 303 303 303 302 302 301 301 301 301 301 301 301 301 301 301 301
311 313 314 318 315 313 313 315 319 320 318 314 311 310 309 308 307 307 308 308 306 306 306 305 305 304 304 304 303 302 302 301 302 301 301 302 303 303 302 301 302 302 301
305 308 310 312 315 318 315 313 314 318 319 316 313 311 310 309 308 306 306 307 307 307 307 306 305 305 304 304 302 302 301 301 301 301 302 302 303 307 307 307 308 309 307
304 304 304 305 309 311 315 318 315 314 317 317 315 313 311 310 309 308 307 307 306 306 306 305 305 305 304 304 302 301 300 301 301 301 302 305 307 308 308 309 310 310 310
306 305 304 305 307 309 310 312 318 316 314 316 316 315 313 311 310 309 308 307 305 305 304 304 304 304 304 303 301 300 300 300 301 301 302 303 307 307 307 308 308 309 309
304 305 306 305 305 308 309 310 312 316 315 314 316 315 314 313 311 310 308 307 305 304 303 303 304 304 303 300 299 299 299 300 301 301 301 301 302 304 306 307 307 307 308
304 306 306 305 305 306 309 309 311 313 316 315 314 316 315 314 312 310 308 307 306 304 303 303 303 302 300 299 299 298 299 299 300 300 301 300 300 301 303 305 305 306 306
304 305 304 305 303 306 307 309 311 313 314 315 314 314 315 314 313 310 309 307 306 305 303 302 301 300 299 299 298 298 299 300 301 300 299 299 299 299 299 298 304 305 306
303 302 303 304 304 305 305 308 309 311 312 312 313 313 315 315 313 311 309 307 306 305 304 303 301 300 299 299 298 299 299 300 300 299 299 298 297 298 298 299 300 300 302
303 303 302 302 303 305 306 304 308 310 310 310 310 311 314 315 313 311 309 307 306 304 303 302 301 300 299 298 298 299 299 299 299 298 297 298 297 298 298 298 298 299 300
302 302 302 303 306 306 304 303 303 308 309 309 310 309 311 314 313 311 308 307 305 304 303 302 301 300 299 298 298 299 299 299 298 298 298 298 298 298 299 299 300 301 302
300 300 304 305 305 304 303 302 302 304 307 309 310 309 310 312 312 311 309 307 305 304 303 302 301 300 299 298 299 299 300 299 298 298 297 297 297 297 299 300 301 302 303
301 305 304 302 301 301 301 300 301 302 304 308 310 310 309 314 312 311 309 307 305 304 302 301 300 300 299 298 299 300 299 297 297 296 296 296 300 303 304 305 304 304 303
301 299 299 300 300 299 299 300 303 303 303 308 309 310 312 310 310 309 308 306 305 303 302 301 300 299 298 299 300 299 297 298 298 296 297 302 304 306 307 307 307 306 305
300 299 300 301 300 298 299 301 304 303 304 307 309 308 310 308 309 308 307 305 303 302 301 300 300 299 300 299 299 297 297 297 296 297 301 305 307 307 308 308 308 306 305
299 299 299 299 298 298 300 302 303 303 304 308 309 309 309 307 308 307 306 304 302 302 300 300 300 301 300 299 298 297 296 297 297 299 303 304 307 308 308 307 307 308 307
299 298 298 297 297 299 300 301 302 301 304 306 308 306 308 308 307 306 304 303 302 301 301 303 303 302 299 298 297 297 297 297 299 304 307 305 308 306 305 304 304 306 306
298 297 296 295 298 300 300 300 301 302 305 307 309 309 308 306 306 305 303 302 301 300 300 301 300 299 298 297 296 296 297 302 305 305 308 304 306 305 304 304 304 305 306

GFSMA_850_thetae_036.txt.gz
Theta_e
327 322 320 315 313 312 311 310 311 311 310 309 308 308 309 311 312 312 313 313 311 309 307 306 311 317 322 323 322 330 332 335 334 335 334 335 334 333 331 331 330 331 331
329 326 323 318 315 313 312 311 310 310 311 310 309 307 307 307 308 308 308 308 308 306 305 305 306 308 312 314 316 318 324 332 333 333 332 333 331 331 330 331 332 331 331
334 331 327 322 320 317 313 312 311 310 310 310 310 309 308 307 306 306 306 306 306 305 305 305 304 303 303 304 305 308 311 315 324 331 331 331 331 331 331 331 328 330 332
337 335 332 329 324 322 318 315 312 311 311 310 310 310 309 308 307 306 306 306 306 306 305 305 304 302 302 302 302 302 302 303 305 311 318 327 330 330 328 327 328 330 330
338 336 333 330 326 324 323 319 315 312 311 311 310 310 309 309 308 307 307 306 306 306 306 305 304 304 302 301 301 301 302 302 302 302 302 304 309 317 323 328 324 324 324
335 336 335 330 325 322 320 320 320 316 313 312 311 310 309 309 309 308 308 307 306 306 306 305 305 305 304 303 302 301 301 301 302 302 302 302 302 302 303 307 318 326 323
327 331 334 331 327 324 321 318 317 316 317 314 311 311 310 309 309 309 309 308 307 306 305 306 305 305 304 303 302 302 302 303 302 302 302 302 302 302 302 302 302 303 311
316 320 322 326 327 322 322 319 317 315 317 316 313 311 309 310 310 309 309 309 308 306 305 306 305 305 304 303 303 303 303 302 303 303 301 301 301 301 301 301 301 302 302
306 310 313 317 323 320 317 317 315 314 314 316 314 312 309 309 309 309 309 309 308 307 305 305 306 305 304 304 303 303 303 303 302 301 302 302 302 301 301 301 301 301 301
303 304 305 308 312 315 317 318 313 314 313 313 314 313 313 312 309 309 309 309 308 308 306 306 306 305 304 304 304 303 303 302 302 301 302 302 305 306 304 303 302 301 301
305 304 304 304 304 306 311 314 315 313 312 312 312 313 314 312 311 309 309 308 309 308 308 307 306 306 305 304 304 304 302 302 301 301 301 301 303 306 309 309 309 309 310
305 304 303 304 304 304 305 307 311 313 316 314 312 312 312 314 314 312 310 310 309 308 307 307 306 306 305 305 304 304 303 302 301 301 301 301 301 302 308 309 310 311 311
301 302 301 303 304 304 304 305 307 309 311 314 316 314 312 312 313 314 311 310 309 308 307 307 306 305 305 304 304 304 303 301 300 300 300 301 301 304 308 310 310 310 310
300 302 301 303 306 304 303 303 305 308 309 310 312 316 315 314 312 312 313 311 309 308 307 307 306 305 304 304 304 304 302 300 299 299 300 301 301 301 301 305 306 307 308
299 301 302 307 305 304 303 303 305 307 308 309 310 313 315 315 314 312 312 312 311 308 308 307 306 305 303 303 303 303 300 299 299 299 299 300 300 301 300 300 300 304 306
299 300 302 302 302 303 303 302 305 305 308 309 311 312 313 314 314 313 311 312 311 310 308 307 306 304 303 302 302 300 299 298 298 299 300 301 301 300 299 298 298 299 299
299 298 301 302 302 302 301 301 303 305 305 308 310 311 311 312 313 314 312 310 311 310 308 307 305 304 302 300 299 299 299 298 298 299 300 300 300 299 298 297 297 298 298
299 300 301 301 301 302 301 304 305 305 303 303 308 309 310 310 310 311 312 310 311 310 309 307 305 304 303 301 300 299 299 298 299 299 299 299 299 298 298 298 297 298 298
298 298 299 299 300 301 305 306 304 305 304 301 303 308 309 309 310 310 310 311 310 310 309 307 305 304 302 301 300 299 298 298 298 298 299 299 298 297 298 298 298 298 298
299 299 299 300 303 304 303 302 301 302 302 302 300 303 306 309 309 309 309 311 310 309 308 307 305 303 302 301 300 299 298 298 298 299 299 298 297 297 297 297 297 297 298
298 299 298 301 303 301 299 300 300 299 299 299 300 301 304 307 309 310 311 311 310 308 307 306 304 303 302 301 300 299 298 298 299 299 298 297 296 296 296 297 299 300 301
298 299 298 300 300 299 298 301 300 299 299 301 302 302 303 306 308 310 311 312 310 309 307 306 305 303 302 301 299 299 299 300 299 298 297 296 296 298 305 306 306 306 306
298 298 298 299 299 299 298 299 299 300 301 302 303 305 303 304 307 309 308 308 308 309 307 307 305 303 301 300 299 299 299 299 298 297 297 296 296 300 307 308 308 308 307
297 298 298 299 299 298 297 297 299 300 301 302 303 304 302 305 308 309 310 307 307 307 305 304 302 301 300 300 300 299 299 298 297 296 296 296 300 307 308 309 310 310 309
297 297 298 298 297 296 295 295 298 300 301 301 302 302 302 307 308 308 309 306 306 305 304 303 301 300 300 301 300 299 298 299 296 296 295 298 308 308 308 307 307 306 305
297 297 297 296 296 295 295 296 299 300 300 301 302 302 305 307 308 308 307 305 306 304 303 301 301 300 301 300 299 298 297 296 295 298 307 306 307 306 304 306 308 307 305

GFSMA_850_thetae_042.txt.gz
Theta_e
338 336 331 328 323 319 316 314 312 310 310 310 310 311 319 323 325 327 327 315 315 314 313 310 308 309 313 318 325 329 334 336 336 335 335 334 332 332 332 332 331 330 330
338 338 336 333 329 323 319 316 314 313 311 310 310 310 311 316 318 316 313 311 310 310 309 308 307 306 310 317 319 320 323 333 335 335 334 333 333 333 332 332 332 332 331
340 340 337 336 333 328 322 318 316 315 312 311 310 310 310 309 310 309 308 307 307 307 307 307 306 306 306 308 310 314 316 319 328 331 332 331 331 332 331 332 330 328 330
336 336 338 336 336 334 331 323 317 317 316 313 312 311 310 310 310 309 309 309 308 307 307 306 306 306 305 304 304 305 307 311 315 320 328 330 330 330 330 330 329 330 330
325 328 332 335 334 335 334 330 322 318 316 315 314 312 311 310 310 309 309 309 309 308 308 307 307 306 306 305 303 303 302 302 303 306 311 318 326 328 329 328 330 330 330
310 314 318 321 324 328 331 331 327 321 318 316 314 312 312 311 310 310 309 309 309 309 308 308 308 307 306 306 305 304 302 302 302 302 302 302 304 310 319 326 327 326 327
305 304 307 311 314 316 319 326 328 324 320 317 314 314 313 313 312 313 311 309 309 309 308 308 308 307 307 306 306 305 304 303 302 302 302 302 302 302 302 302 304 308 312
305 306 307 308 309 311 313 314 320 323 323 319 315 315 316 317 314 313 314 314 312 310 309 309 308 308 306 306 306 306 304 304 313 306 303 302 302 302 302 302 302 302 302
305 306 307 307 308 309 310 312 314 316 319 319 317 316 315 317 320 316 314 316 317 312 310 309 308 308 307 306 306 306 305 303 305 309 315 310 302 302 302 302 301 302 302
305 306 306 306 306 307 308 309 310 312 313 316 316 316 315 315 318 319 314 314 313 312 310 309 308 308 307 306 306 306 306 304 303 303 303 306 309 307 309 304 303 302 302
304 304 304 303 304 304 305 307 308 308 311 311 313 313 315 315 311 311 316 314 311 311 310 313 310 308 308 306 306 306 306 305 304 304 303 302 305 310 310 312 312 308 306
304 304 304 303 303 303 304 305 307 308 308 309 310 311 312 312 312 310 310 314 316 314 312 311 313 310 309 308 307 307 306 305 305 304 303 302 301 302 305 311 313 313 312
303 303 304 303 303 302 304 304 306 307 307 307 309 309 309 311 311 310 309 310 313 315 313 310 313 314 310 308 308 307 307 306 305 305 304 303 301 300 301 303 310 312 313
302 303 303 303 302 302 302 303 304 307 307 306 307 308 309 309 310 310 310 310 310 313 313 312 312 313 313 310 308 308 307 306 305 305 304 304 302 300 300 300 301 304 309
301 301 301 302 302 302 302 302 303 306 307 306 306 307 308 309 310 309 309 311 311 311 313 314 311 311 313 312 309 308 306 306 305 305 304 304 302 300 300 300 300 301 301
301 301 301 301 301 302 301 301 302 305 306 305 305 306 307 308 309 310 310 309 310 310 311 314 315 311 311 312 311 308 306 305 305 304 304 303 301 300 299 299 299 300 301
299 300 300 301 301 301 301 301 301 303 304 304 304 305 306 307 308 309 310 310 309 310 310 311 312 313 309 310 310 310 306 305 304 304 303 303 300 299 299 299 299 300 300
299 300 299 300 300 300 301 301 301 302 302 303 303 305 306 306 306 307 309 310 309 309 310 310 312 312 308 308 311 310 306 304 304 304 303 302 300 299 299 299 299 299 299
299 299 299 299 300 300 300 301 301 301 301 302 303 304 305 305 305 305 307 309 309 309 307 309 312 311 308 307 307 309 306 304 303 303 302 300 299 299 299 299 299 298 300
298 298 299 299 299 300 301 301 301 301 302 303 303 304 304 304 305 305 306 306 308 308 307 308 310 311 308 306 305 308 306 303 303 302 300 299 300 299 299 299 299 299 300
296 297 297 298 298 299 299 299 301 302 302 302 303 303 303 303 303 304 305 306 307 307 306 306 308 309 308 306 304 305 306 305 303 303 302 302 300 299 299 299 299 300 300
295 295 296 297 298 298 299 299 300 301 301 302 301 302 302 302 302 303 304 305 306 306 306 307 308 309 307 306 305 306 306 305 305 304 303 304 303 300 299 299 299 300 298
296 296 296 297 297 298 298 299 300 301 301 301 301 302 302 301 301 302 303 304 305 307 307 307 307 309 309 309 306 305 306 305 305 305 304 304 303 302 299 299 300 298 297
295 295 296 296 297 297 298 299 300 300 301 301 301 301 301 301 301 301 302 303 305 306 307 309 308 309 308 310 306 306 307 306 305 304 303 303 303 303 303 301 298 297 297
294 295 295 296 296 297 297 298 299 300 300 300 300 300 300 300 300 301 301 302 303 305 308 306 308 309 309 310 305 305 305 305 305 304 304 303 303 303 302 301 299 302 306
294 294 295 295 296 296 297 298 298 299 299 299 299 299 299 300 300 301 301 302 303 305 306 306 308 308 307 309 304 304 304 305 304 304 304 304 304 302 304 306 309 309 311

GFSMA_850_thetae_045.txt.gz
Theta_e
340 341 339 336 332 328 326 323 320 319 316 312 314 315 317 322 327 329 330 330 325 317 316 314 312 310 309 310 315 321 332 335 339 336 335 333 332 332 332 332 331 330 329
339 339 339 338 338 333 328 325 321 318 317 316 314 313 314 316 321 324 326 326 316 311 311 311 310 309 307 308 310 319 321 332 335 335 334 334 334 333 332 332 331 332 331
337 338 338 339 337 337 334 328 324 320 317 316 315 313 313 313 315 319 320 318 312 309 308 308 308 308 307 307 308 312 315 319 330 334 334 333 333 332 332 331 332 331 329
321 325 330 334 336 335 336 331 326 322 319 317 316 314 313 312 312 315 317 316 311 311 310 308 307 307 307 307 307 307 309 311 315 324 331 332 332 330 330 331 331 330 328
311 312 316 321 324 327 331 332 331 329 322 319 318 316 315 313 312 312 314 314 311 309 309 309 308 307 307 307 307 306 305 305 306 310 315 323 330 330 329 329 330 330 330
309 310 310 312 315 318 321 324 328 330 328 322 319 318 316 314 313 312 312 313 312 310 309 308 309 309 308 307 307 307 306 304 303 303 303 306 312 319 327 329 329 329 327
307 307 309 309 310 311 314 318 320 323 329 327 321 319 317 316 315 313 313 312 312 311 310 309 308 308 309 308 307 307 307 307 304 303 302 302 302 302 304 308 314 318 321
306 306 307 308 309 309 310 311 314 318 318 325 324 321 319 318 317 316 314 313 312 311 311 310 309 309 308 309 308 307 306 306 306 304 303 302 302 302 302 302 302 302 303
305 305 306 307 307 307 308 309 310 312 315 315 321 321 317 318 321 319 318 315 313 312 312 313 311 310 309 309 308 308 306 306 305 306 304 303 303 302 302 302 302 302 302
305 305 306 306 305 305 305 306 307 309 310 313 315 316 319 318 316 320 319 317 315 314 313 313 313 311 310 309 309 308 307 306 305 305 311 315 307 303 303 303 302 302 302
305 305 305 305 305 305 304 305 305 306 308 309 311 314 315 316 317 314 314 319 316 314 313 312 312 310 310 310 309 308 307 306 306 304 304 304 305 304 304 305 303 302 302
304 304 304 304 305 305 304 304 304 305 306 308 308 310 312 313 313 314 315 315 313 313 315 313 311 311 311 310 309 308 308 307 306 305 304 304 303 303 304 305 310 310 306
303 303 303 304 304 304 304 304 303 304 305 306 308 308 309 311 312 313 312 314 313 315 314 314 313 311 311 310 311 309 309 308 306 305 304 304 303 302 302 302 306 313 314
302 302 302 302 303 303 304 304 303 303 304 305 307 308 307 308 310 311 312 311 310 310 311 314 314 313 312 311 312 311 309 308 307 306 305 305 304 303 302 301 301 302 312
301 301 301 302 302 302 302 302 303 303 303 303 306 308 307 307 308 309 311 310 310 311 311 312 315 314 312 311 311 311 311 310 308 307 305 305 304 304 303 301 300 301 301
301 301 301 301 301 301 301 302 302 302 302 302 304 307 306 307 307 308 310 311 310 310 311 313 313 315 314 312 311 311 310 310 308 307 306 305 304 304 303 301 300 300 300
300 300 300 300 300 300 301 301 302 302 302 302 303 306 306 306 306 307 308 310 311 310 310 311 312 314 314 312 310 310 309 309 308 307 306 305 304 304 303 301 300 300 299
298 299 299 300 300 301 300 300 302 301 302 302 302 304 305 305 305 307 307 308 310 310 310 310 311 312 314 313 310 309 310 308 307 307 306 305 304 304 303 300 300 300 300
297 297 298 298 299 299 299 300 301 301 301 302 302 302 303 304 305 306 306 306 308 309 310 309 310 310 312 312 310 308 309 308 307 307 306 305 304 303 303 300 299 300 300
296 296 297 297 297 298 299 300 300 301 301 302 302 302 302 302 304 305 305 305 306 307 308 308 308 309 310 312 309 308 307 308 307 306 306 305 304 303 302 300 300 299 299
297 296 296 296 297 297 297 299 299 300 301 301 301 302 303 303 304 304 305 305 305 306 307 308 307 308 308 310 310 307 307 307 307 307 305 305 304 302 301 300 300 300 300
296 296 296 296 296 296 296 298 299 300 300 300 300 302 303 303 303 303 304 304 304 306 307 306 307 306 307 309 309 306 307 307 307 306 305 304 304 303 302 301 301 300 300
295 296 296 296 296 296 296 298 299 300 300 300 300 300 302 302 302 302 302 303 304 304 305 306 307 305 308 308 309 307 307 306 306 307 307 304 304 304 304 303 301 301 300
296 296 296 296 295 295 297 298 299 299 300 299 299 301 301 301 302 302 302 302 302 304 305 306 306 307 306 307 309 307 307 308 307 307 306 305 305 304 304 303 301 300 300
295 296 296 295 295 296 297 297 298 298 298 299 299 299 301 301 302 302 302 301 302 301 302 304 306 306 307 307 309 308 306 306 306 306 306 305 305 304 304 303 302 301 300
296 294 296 294 295 296 296 297 298 298 299 298 299 300 300 300 301 301 301 301 302 301 301 302 304 306 307 306 308 308 306 306 306 306 306 305 305 304 304 303 301 300 302

GFSMA_850_thetae_048.txt.gz
Theta_e
339 339 339 339 337 335 333 329 325 321 320 318 316 313 315 320 323 328 330 330 331 327 320 315 315 315 312 311 313 319 330 336 338 336 333 331 332 331 331 332 330 329 328
338 338 337 337 337 337 335 333 328 325 320 318 317 315 314 314 318 323 326 328 327 321 314 311 311 312 310 309 309 311 313 331 336 337 336 334 333 332 331 331 330 330 330
318 325 330 335 336 336 336 336 332 327 324 319 317 316 314 314 312 317 321 322 320 313 311 309 309 309 309 308 308 309 312 321 329 334 335 334 334 333 333 332 332 332 331
308 308 310 317 321 325 327 332 335 332 326 323 319 318 316 314 313 312 315 318 316 312 310 310 309 308 308 307 308 308 310 313 316 327 332 333 333 332 332 331 330 330 331
307 307 307 307 309 315 316 318 321 330 331 329 324 320 318 316 314 313 312 315 316 313 310 309 309 309 308 307 307 307 307 308 310 314 325 332 332 332 332 328 328 329 329
306 306 306 306 306 308 310 313 316 316 325 330 329 325 320 319 317 314 313 312 314 313 312 310 309 309 309 308 307 307 307 306 306 306 309 314 323 329 330 328 328 328 329
305 305 304 305 306 308 308 309 310 312 313 312 323 329 326 322 319 316 315 313 312 313 312 311 309 309 309 309 308 307 307 307 306 305 304 304 306 311 318 326 328 329 328
305 305 305 305 306 307 307 308 308 309 311 313 311 315 324 324 324 318 317 315 314 312 312 312 311 309 309 309 308 308 308 307 307 306 304 303 303 302 303 305 309 313 317
304 305 305 305 305 305 306 306 306 307 308 309 312 312 319 319 320 321 320 319 315 315 312 312 312 311 310 309 309 308 308 307 307 307 306 304 303 302 302 302 302 302 302
303 304 305 305 305 305 305 305 305 305 306 307 310 312 312 314 318 318 320 319 317 314 315 312 312 312 313 311 309 309 309 308 307 306 307 306 304 303 303 302 302 302 302
302 303 303 303 304 304 305 305 305 304 304 304 305 308 309 311 311 314 317 319 318 317 314 314 313 312 313 313 311 310 309 308 307 306 307 316 317 311 306 304 303 302 302
302 302 303 303 303 304 304 304 305 305 304 304 305 306 308 311 312 311 312 314 315 318 317 314 313 312 312 312 311 311 309 309 307 306 306 306 314 317 316 314 313 306 303
301 301 301 302 302 303 303 304 305 305 304 304 303 304 306 308 308 311 311 311 312 313 315 315 315 315 313 311 311 311 310 309 308 306 306 305 304 305 309 315 316 315 315
300 301 301 301 301 301 301 302 302 303 303 303 303 303 304 305 308 308 310 310 312 311 311 315 314 314 312 312 312 312 310 309 309 307 306 305 304 304 303 304 309 312 315
300 300 301 301 301 301 301 302 302 302 302 302 303 303 304 304 307 307 308 309 310 311 310 311 314 314 315 312 312 312 311 311 309 307 307 306 305 305 304 303 302 302 305
299 299 299 299 300 300 301 301 301 301 301 301 302 303 302 303 306 307 307 307 308 310 310 309 310 311 312 313 314 311 311 312 310 309 307 306 305 305 304 303 303 301 301
298 298 298 298 298 299 299 301 301 301 302 301 302 303 302 302 303 307 307 307 308 308 310 309 309 310 312 312 312 311 311 311 311 310 308 306 306 305 304 304 304 302 300
299 298 298 297 297 297 297 298 299 301 301 301 302 303 302 302 304 306 306 306 306 307 308 310 310 309 312 313 311 311 310 310 310 309 308 307 306 305 304 304 304 303 300
297 297 296 297 296 296 296 297 297 299 300 300 301 302 302 302 303 304 305 305 306 306 306 308 309 309 309 311 311 312 309 309 308 309 308 307 306 305 305 304 304 303 300
296 296 296 296 296 296 296 296 297 297 299 299 300 301 302 302 302 303 304 305 305 305 305 306 307 309 307 308 310 311 310 309 308 308 309 308 307 306 305 304 304 303 301
295 295 296 296 296 296 296 296 296 297 298 299 299 301 301 302 302 302 302 303 304 305 306 305 306 307 307 307 308 310 309 309 309 308 310 309 308 307 305 304 304 303 301
295 296 295 296 296 296 298 296 298 298 297 297 299 299 299 300 302 303 302 305 303 304 305 305 305 306 307 306 306 308 309 308 307 309 307 307 308 308 306 304 304 302 301
295 295 296 295 297 295 295 297 297 298 298 298 298 299 300 299 300 300 301 305 303 304 304 304 304 305 306 305 305 307 309 308 307 308 308 307 307 307 306 305 304 303 302
294 295 295 295 295 294 296 296 297 298 297 298 298 299 300 299 300 300 300 301 303 303 302 302 302 304 305 305 305 306 308 308 307 307 307 306 306 307 306 305 305 304 304
295 295 295 297 296 294 295 295 297 297 297 297 298 298 299 299 299 300 302 302 302 302 302 303 304 304 304 304 304 306 308 307 307 307 307 307 306 306 306 305 305 304 303
295 296 296 296 296 295 294 295 297 297 297 297 297 298 298 299 299 301 302 302 301 301 301 301 301 300 304 305 305 306 307 308 306 306 307 307 306 306 305 305 304 304 302